EW4479 Weather Reports


time (UTC)temp
F
wind
direction
speed
knots
gust
knots
rain 1hr
in
rain 24hr
in
rain mn
in
humidity
%
barometer
mb
20240305013010 41 263 0.0 0.9 0.00 0.00 0.00 94 1012.9
20240305012502 41 263 0.0 0.9 0.00 0.00 0.00 94 1013.0
20240305012011 41 263 0.0 0.0 0.00 0.00 0.00 94 1013.0
20240305011015 41 263 0.0 0.0 0.00 0.00 0.00 94 1013.0
20240305010502 41 263 0.0 0.0 0.00 0.00 0.00 94 1013.0
20240305010009 41 263 0.0 0.9 0.00 0.00 0.00 94 1012.9
20240305005503 41 263 0.0 1.7 0.00 0.00 0.00 94 1013.0
20240305005003 41 263 0.9 1.7 0.00 0.00 0.00 94 1013.0
20240305004502 41 263 0.0 1.7 0.00 0.00 0.00 94 1013.0
20240305004000 41 263 0.9 1.7 0.00 0.00 0.00 94 1013.0
20240305003500 41 270 0.0 0.9 0.00 0.00 0.00 94 1013.0
20240305002459 41 236 0.0 0.0 0.00 0.00 0.00 94 1013.1
20240305001957 41 236 0.0 0.0 0.00 0.00 0.00 94 1013.0
20240305001453 41 236 0.0 0.0 0.00 0.00 0.00 94 1013.0
20240305000449 41 236 0.0 0.0 0.00 0.00 0.00 94 1012.8
20240304235441 40 236 0.0 0.0 0.00 0.00 0.00 94 1012.9
20240304234938 40 236 0.0 0.0 0.00 0.00 0.00 94 1012.8
20240304234436 40 236 0.0 0.0 0.00 0.00 0.00 94 1012.8
20240304233931 40 236 0.0 0.0 0.00 0.00 0.00 94 1012.8
20240304232932 40 220 0.0 0.0 0.00 0.00 0.00 94 1012.6
20240304232432 40 220 0.0 0.0 0.00 0.00 0.00 95 1012.6
20240304231926 40 220 0.0 0.0 0.00 0.00 0.00 95 1012.5
20240304231429 40 220 0.0 0.0 0.00 0.00 0.00 95 1012.5
20240304230918 40 220 0.0 0.0 0.00 0.00 0.00 95 1012.5
20240304230418 40 220 0.0 0.0 0.00 0.00 0.00 94 1012.5
20240304225916 40 220 0.0 0.9 0.00 0.00 0.00 95 1012.5
20240304225415 40 220 0.0 1.7 0.00 0.00 0.00 95 1012.5
20240304224910 40 236 0.9 1.7 0.00 0.00 0.00 95 1012.4
20240304224406 39 220 0.0 1.7 0.00 0.00 0.00 94 1012.4
20240304223901 39 236 0.0 1.7 0.00 0.00 0.00 94 1012.3
20240304223403 40 220 0.9 2.6 0.00 0.00 0.00 95 1012.4
20240304222904 40 221 0.9 2.6 0.00 0.00 0.00 95 1012.3
20240304222404 40 198 0.9 2.6 0.00 0.00 0.00 95 1012.2
20240304221901 39 284 0.0 0.0 0.00 0.00 0.00 95 1012.2
20240304221401 39 284 0.0 1.7 0.00 0.00 0.00 95 1012.2
20240304220403 39 284 0.0 0.0 0.00 0.00 0.00 94 1012.3
20240304215402 39 284 0.0 0.0 0.00 0.00 0.00 94 1012.1
20240304214902 39 284 0.0 0.0 0.00 0.00 0.00 94 1012.1
20240304214402 39 284 0.0 0.0 0.00 0.00 0.00 94 1012.1
20240304213900 40 284 0.0 0.0 0.00 0.00 0.00 93 1012.2
20240304212901 40 284 0.0 0.0 0.00 0.00 0.00 93 1012.0
20240304212404 40 284 0.0 0.0 0.00 0.00 0.00 93 1012.0
20240304211916 40 284 0.0 0.0 0.00 0.00 0.00 93 1012.0
20240304211403 41 284 0.0 0.9 0.00 0.00 0.00 93 1012.1
20240304210901 41 284 0.0 0.9 0.00 0.00 0.00 92 1012.0
20240304210403 41 283 0.0 0.0 0.00 0.00 0.00 92 1012.0
20240304205903 42 283 0.0 0.0 0.00 0.00 0.00 92 1012.0
20240304205405 42 283 0.0 0.0 0.00 0.00 0.00 92 1012.1
20240304204402 42 283 0.0 0.0 0.00 0.00 0.00 92 1012.1
20240304203903 42 283 0.0 0.0 0.00 0.00 0.00 92 1012.1
20240304203404 43 283 0.0 0.0 0.00 0.00 0.00 91 1012.1
20240304202902 43 283 0.0 0.0 0.00 0.00 0.00 91 1012.2
20240304202402 44 283 0.0 0.0 0.00 0.00 0.00 91 1012.0
20240304201402 44 283 0.0 0.0 0.00 0.00 0.00 91 1012.0
20240304200901 44 283 0.0 0.0 0.00 0.00 0.00 91 1012.0
20240304200401 44 283 0.0 0.0 0.00 0.00 0.00 91 1012.1
20240304195901 44 283 0.0 0.0 0.00 0.00 0.00 91 1012.0
20240304195401 44 283 0.0 0.0 0.00 0.00 0.00 91 1012.0
20240304194901 44 283 0.0 0.0 0.00 0.00 0.00 91 1012.1
20240304193900 44 283 0.0 0.0 0.00 0.00 0.00 91 1012.1
20240304192905 44 283 0.0 0.0 0.00 0.00 0.00 90 1012.1
20240304191902 44 283 0.0 0.0 0.00 0.00 0.00 90 1012.0
20240304191400 44 283 0.0 0.0 0.00 0.00 0.00 90 1012.1
20240304190903 44 283 0.0 0.0 0.00 0.00 0.00 90 1012.1
20240304190401 45 283 0.0 1.7 0.00 0.00 0.00 89 1012.0
20240304185902 45 283 0.0 1.7 0.00 0.00 0.00 90 1012.0
20240304184903 45 302 0.0 0.9 0.00 0.00 0.00 89 1011.9
20240304184401 45 303 0.0 1.7 0.00 0.00 0.00 89 1012.0
20240304183402 45 302 0.0 1.7 0.00 0.00 0.00 89 1011.9
20240304182901 45 286 0.0 1.7 0.00 0.00 0.00 89 1011.9
20240304181900 45 294 0.0 0.0 0.00 0.00 0.00 89 1011.8
20240304181400 45 294 0.0 0.0 0.00 0.00 0.00 89 1011.8
20240304180903 45 294 0.0 0.0 0.00 0.00 0.00 89 1011.7
20240304180404 45 294 0.0 0.9 0.00 0.00 0.00 89 1011.7
20240304175908 45 294 0.0 0.9 0.00 0.00 0.00 88 1011.7
20240304175404 45 294 0.0 0.9 0.00 0.00 0.00 88 1011.7
20240304174903 45 294 0.0 0.9 0.00 0.00 0.00 88 1011.6
20240304174402 45 304 0.0 1.7 0.00 0.00 0.00 88 1011.7
20240304173903 45 281 0.0 1.7 0.00 0.00 0.00 88 1011.6
20240304173402 45 318 0.0 2.6 0.00 0.00 0.00 88 1011.5
20240304172903 45 331 0.0 2.6 0.00 0.00 0.00 88 1011.5
20240304172407 45 280 0.0 1.7 0.00 0.00 0.00 88 1011.4
20240304171903 45 336 0.0 1.7 0.00 0.00 0.00 87 1011.3
20240304171402 45 343 0.0 1.7 0.00 0.00 0.00 87 1011.4
20240304170903 46 299 0.0 2.6 0.00 0.00 0.00 87 1011.3
20240304165903 46 325 0.0 1.7 0.00 0.00 0.00 87 1011.4
20240304165400 46 331 0.9 2.6 0.00 0.00 0.00 86 1011.3
20240304164903 46 299 0.9 2.6 0.00 0.00 0.00 86 1011.3
20240304164401 46 298 0.9 3.5 0.00 0.00 0.00 86 1011.2
20240304163859 46 288 0.0 3.5 0.00 0.00 0.00 86 1011.2
20240304162849 46 300 0.0 2.6 0.00 0.00 0.00 85 1011.0
20240304162347 46 288 0.9 2.6 0.00 0.00 0.00 85 1011.1
20240304161845 46 272 0.0 5.2 0.00 0.00 0.00 85 1010.9
20240304161346 46 0 1.7 5.2 0.00 0.00 0.00 85 1010.9
20240304160846 46 304 0.0 4.3 0.00 0.00 0.00 85 1010.7
20240304160338 46 281 0.9 5.2 0.00 0.00 0.00 84 1010.7
20240304155340 46 305 1.7 4.3 0.00 0.00 0.00 85 1010.6
20240304154831 47 322 1.7 4.3 0.00 0.00 0.00 84 1010.7
20240304154329 47 294 0.0 2.6 0.00 0.00 0.00 85 1010.6
20240304153330 46 305 1.7 6.1 0.00 0.00 0.00 84 1010.6
20240304152329 46 336 1.7 5.2 0.00 0.00 0.00 85 1010.5
20240304151827 47 323 0.0 5.2 0.00 0.00 0.00 86 1010.5
20240304151323 46 297 2.6 5.2 0.00 0.00 0.00 85 1010.5
20240304150820 47 344 1.7 4.3 0.00 0.00 0.00 84 1010.6
20240304150317 47 292 1.7 6.1 0.00 0.00 0.00 84 1010.5
20240304145817 47 304 2.6 6.1 0.00 0.00 0.00 84 1010.5
20240304145310 47 302 0.9 4.3 0.00 0.00 0.00 84 1010.6
20240304144811 47 327 1.7 4.3 0.00 0.00 0.00 84 1010.5
20240304144304 47 274 1.7 4.3 0.00 0.00 0.00 84 1010.5
20240304143804 47 261 1.7 6.1 0.00 0.00 0.00 85 1010.4
20240304143303 46 277 2.6 7.0 0.00 0.00 0.00 85 1010.4
20240304142802 46 295 2.6 7.0 0.00 0.00 0.00 85 1010.4
20240304142306 47 316 1.7 3.5 0.00 0.00 0.00 85 1010.6
20240304141800 47 259 0.9 4.3 0.00 0.00 0.00 85 1010.5
20240304141301 47 304 1.7 8.7 0.00 0.00 0.00 85 1010.6
20240304140802 47 302 2.6 8.7 0.00 0.00 0.00 85 1010.6
20240304140301 47 340 3.5 8.7 0.00 0.00 0.00 84 1010.6
20240304135800 47 314 1.7 5.2 0.00 0.00 0.00 84 1010.6
20240304135301 47 312 1.7 4.3 0.00 0.00 0.00 84 1010.6
20240304133801 47 286 0.9 7.0 0.00 0.00 0.00 84 1010.7
20240304133301 47 335 1.7 7.0 0.00 0.00 0.00 83 1010.7
20240304132801 47 309 2.6 7.0 0.00 0.00 0.00 83 1010.6
20240304131801 47 289 3.5 7.8 0.00 0.00 0.00 83 1010.5
20240304130802 47 323 2.6 5.2 0.00 0.00 0.00 82 1010.5
20240304130302 47 324 2.6 7.0 0.00 0.00 0.00 83 1010.5
20240304125801 47 307 3.5 7.8 0.00 0.00 0.00 83 1010.5
20240304125301 48 292 2.6 7.8 0.00 0.00 0.00 83 1010.5
20240304124301 47 313 2.6 8.7 0.00 0.00 0.00 83 1010.6
20240304123801 47 305 2.6 7.8 0.00 0.00 0.00 83 1010.6
20240304123301 47 355 3.5 8.7 0.00 0.00 0.00 83 1010.6
20240304122801 47 302 4.3 8.7 0.00 0.00 0.00 82 1010.6
20240304122300 47 250 2.6 8.7 0.00 0.00 0.00 83 1010.6
20240304121800 47 260 1.7 8.7 0.00 0.00 0.00 83 1010.6
20240304121301 48 284 1.7 7.0 0.00 0.00 0.00 82 1010.7
20240304120801 48 269 2.6 8.7 0.00 0.00 0.00 82 1010.6
20240304120302 47 271 4.3 8.7 0.00 0.00 0.00 82 1010.6
20240304115801 47 257 3.5 7.0 0.00 0.00 0.00 82 1010.6
20240304115300 47 308 2.6 7.0 0.00 0.00 0.00 82 1010.6
20240304114801 47 328 1.7 7.0 0.00 0.00 0.00 82 1010.9
20240304114303 47 13 3.5 7.8 0.00 0.00 0.00 82 1010.7
20240304113804 47 248 3.5 7.8 0.00 0.00 0.00 83 1010.5
20240304113303 47 234 3.5 7.0 0.00 0.00 0.00 83 1010.6
20240304112301 47 277 2.6 7.0 0.00 0.00 0.00 83 1010.5
20240304111304 47 313 3.5 7.8 0.00 0.00 0.00 84 1010.5
20240304110801 47 254 3.5 8.7 0.00 0.00 0.00 84 1010.5
20240304110302 47 286 4.3 8.7 0.00 0.00 0.00 83 1010.5
20240304105801 47 301 2.6 7.0 0.00 0.00 0.00 83 1010.6
20240304105305 47 355 2.6 7.0 0.00 0.00 0.00 84 1010.6
20240304104304 47 342 3.5 8.7 0.00 0.00 0.00 84 1010.5
20240304103802 47 337 2.6 8.7 0.00 0.00 0.00 85 1010.5
20240304103303 46 286 1.7 7.0 0.00 0.00 0.00 85 1010.5
20240304102802 46 245 3.5 6.1 0.00 0.00 0.00 85 1010.5
20240304102305 46 265 1.7 7.0 0.00 0.00 0.00 86 1010.5
20240304101802 46 324 2.6 7.0 0.00 0.00 0.00 85 1010.4
20240304101304 46 278 1.7 7.8 0.00 0.00 0.00 86 1010.4
20240304100804 46 282 2.6 7.8 0.00 0.00 0.00 86 1010.2
20240304100303 46 241 3.5 6.1 0.00 0.00 0.00 86 1010.2
20240304095801 46 262 2.6 5.2 0.00 0.00 0.00 86 1010.3
20240304095305 46 272 1.7 5.2 0.00 0.00 0.00 87 1010.2
20240304094800 46 265 1.7 5.2 0.00 0.00 0.00 87 1010.2
20240304094303 45 253 1.7 5.2 0.00 0.00 0.00 87 1010.0
20240304093305 45 261 2.6 6.1 0.00 0.00 0.00 88 1010.1
20240304092800 45 266 3.5 7.8 0.00 0.00 0.00 88 1010.1
20240304092305 45 318 2.6 7.8 0.00 0.00 0.00 88 1010.1
20240304091302 45 326 1.7 6.1 0.00 0.00 0.00 88 1009.9
20240304090801 44 308 1.7 6.1 0.00 0.00 0.00 89 1009.8
20240304090302 44 284 1.7 7.8 0.00 0.00 0.00 88 1009.9
20240304085801 44 267 2.6 7.8 0.00 0.00 0.00 88 1009.8
20240304085305 44 245 1.7 5.2 0.00 0.00 0.00 89 1009.8
20240304084801 44 282 0.9 5.2 0.00 0.00 0.00 89 1009.8
20240304084304 44 253 0.9 6.1 0.00 0.00 0.00 89 1009.8
20240304083302 44 247 1.7 5.2 0.00 0.00 0.00 89 1009.6
20240304082800 44 274 1.7 7.8 0.00 0.00 0.00 89 1009.6
20240304082309 44 334 3.5 7.8 0.00 0.00 0.00 89 1009.6
20240304081800 44 269 1.7 5.2 0.00 0.00 0.00 90 1009.5
20240304081302 44 239 1.7 4.3 0.00 0.00 0.00 90 1009.6
20240304080801 44 253 0.9 3.5 0.00 0.00 0.00 90 1009.5
20240304080303 44 265 1.7 3.5 0.00 0.00 0.00 90 1009.4
20240304075801 43 246 1.7 3.5 0.00 0.00 0.00 90 1009.5
20240304075305 43 279 0.9 3.5 0.00 0.00 0.00 90 1009.3
20240304074802 43 256 0.9 3.5 0.00 0.00 0.00 90 1009.3
20240304073803 43 270 1.7 4.3 0.00 0.00 0.00 90 1009.2
20240304073301 43 253 1.7 6.1 0.00 0.00 0.00 90 1009.2
20240304072801 43 252 1.7 6.1 0.00 0.00 0.00 90 1009.0
20240304072301 43 257 1.7 5.2 0.00 0.00 0.00 90 1008.8
20240304071801 43 269 0.9 4.3 0.00 0.00 0.00 91 1008.7
20240304071301 43 264 1.7 7.8 0.00 0.00 0.00 91 1008.6
20240304070801 42 260 2.6 7.8 0.00 0.00 0.00 91 1008.6
20240304070301 42 279 1.7 6.1 0.00 0.00 0.00 91 1008.4
20240304065801 42 262 1.7 6.1 0.00 0.00 0.00 91 1008.4
20240304065300 42 280 2.6 5.2 0.00 0.00 0.00 91 1008.3
20240304064800 42 261 2.6 6.1 0.00 0.00 0.00 91 1008.4
20240304064303 42 248 2.6 6.1 0.00 0.00 0.00 91 1008.1
20240304063804 42 261 2.6 6.1 0.00 0.00 0.00 91 1008.1
20240304062804 41 267 2.6 5.2 0.00 0.00 0.00 91 1008.1
20240304062257 41 251 1.7 7.8 0.00 0.00 0.00 91 1008.0
20240304061752 41 248 1.7 7.8 0.00 0.00 0.00 91 1008.0
20240304061251 41 242 2.6 7.0 0.00 0.00 0.00 91 1008.0
20240304060751 41 278 2.6 5.2 0.00 0.00 0.00 91 1008.1
20240304060247 41 263 1.7 8.7 0.00 0.00 0.00 91 1008.0
20240304055239 40 261 3.5 8.7 0.00 0.00 0.00 91 1007.7
20240304054738 40 242 4.3 8.7 0.00 0.00 0.00 91 1007.6
20240304053735 40 252 3.5 8.7 0.00 0.00 0.00 91 1007.3
20240304053232 40 246 2.6 7.0 0.00 0.00 0.00 90 1007.2
20240304052731 40 309 2.6 7.0 0.00 0.00 0.00 90 1007.2
20240304052229 40 285 2.6 7.0 0.00 0.00 0.00 90 1007.1
20240304051734 40 259 1.7 6.1 0.00 0.00 0.00 90 1007.1
20240304051231 40 223 3.5 6.1 0.00 0.00 0.00 89 1007.0
20240304050731 40 308 3.5 7.8 0.00 0.00 0.00 89 1006.8
20240304045728 40 331 3.5 10.4 0.00 0.00 0.00 89 1006.5
20240304044728 40 237 2.6 6.1 0.00 0.00 0.00 88 1006.3
20240304044229 40 263 0.9 5.2 0.00 0.00 0.00 87 1006.2
20240304043729 40 263 2.6 6.1 0.00 0.00 0.00 87 1006.1
20240304043228 40 258 2.6 6.1 0.00 0.00 0.00 87 1005.9
20240304042729 40 308 2.6 6.1 0.00 0.00 0.00 86 1005.8
20240304042229 40 281 2.6 4.3 0.00 0.00 0.00 85 1005.7
20240304041730 40 253 1.7 5.2 0.00 0.00 0.00 85 1005.6
20240304041229 40 280 1.7 7.0 0.00 0.00 0.00 84 1005.6
20240304040228 40 242 1.7 3.5 0.00 0.00 0.00 82 1005.4
20240304035724 40 260 1.7 5.2 0.00 0.00 0.00 82 1005.4
20240304035220 40 258 1.7 5.2 0.00 0.00 0.00 81 1005.3
20240304034716 40 258 1.7 3.5 0.00 0.00 0.00 80 1005.1
20240304034211 40 244 1.7 5.2 0.00 0.00 0.00 79 1004.9
20240304033710 40 283 2.6 5.2 0.00 0.00 0.00 78 1004.9
20240304033207 40 248 1.7 5.2 0.00 0.00 0.00 77 1004.9
20240304032202 40 253 1.7 4.3 0.00 0.00 0.00 77 1004.8
20240304031704 40 257 0.9 2.6 0.00 0.00 0.00 77 1004.6
20240304031203 40 248 0.9 2.6 0.00 0.00 0.00 76 1004.6
20240304030202 39 262 1.7 4.3 0.00 0.00 0.00 76 1004.4
20240304025705 39 263 0.0 2.6 0.00 0.00 0.00 76 1004.4
20240304025202 39 218 0.0 0.0 0.00 0.00 0.00 76 1004.4
20240304024703 38 203 0.0 0.0 0.00 0.00 0.00 77 1004.4
20240304024202 38 203 0.0 0.0 0.00 0.00 0.00 78 1004.3
20240304023702 38 203 0.0 0.0 0.00 0.00 0.00 79 1004.2
20240304023200 37 203 0.0 0.0 0.00 0.00 0.00 82 1004.2
20240304022701 37 203 0.0 0.0 0.00 0.00 0.00 81 1004.1
20240304022201 38 203 0.0 0.0 0.00 0.00 0.00 79 1004.2
20240304021702 38 203 0.0 0.0 0.00 0.00 0.00 79 1004.1
20240304021201 38 216 0.0 0.0 0.00 0.00 0.00 81 1004.0
20240304020201 38 216 0.0 0.0 0.00 0.00 0.00 82 1004.0
20240304015703 38 216 0.0 0.0 0.00 0.00 0.00 82 1004.0
20240304014702 37 216 0.0 0.9 0.00 0.00 0.00 83 1003.9
20240304014203 37 216 0.0 0.9 0.00 0.00 0.00 83 1003.8
20240304013704 38 216 0.0 0.9 0.00 0.00 0.00 80 1003.8
20240304013203 38 216 0.0 0.0 0.00 0.00 0.00 79 1003.9